Weather History for Andrews AFB, MD

Change the Weather History Date:

Wednesday, February 13, 2013

  Actual Average Record
Temperature  
Mean Temperature 38 °F -  
Max Temperature 45 °F 45 °F 53 °F (2011)
Min Temperature 32 °F 26 °F 17 °F (2003)
Degree Days  
Heating Degree Days 26    
Moisture  
Dew Point 32 °F    
Average Humidity 82    
Maximum Humidity 100    
Minimum Humidity 53    
Precipitation  
Precipitation 0.14 in - - ()
Sea Level Pressure  
Sea Level Pressure 29.75 in    
Wind  
Wind Speed 7 mph (NNE)    
Max Wind Speed 13 mph    
Max Gust Speed -    
Visibility 8 miles    
Events Rain    
Averages and records for this station are not official NWS values.
T = Trace of Precipitation, MM = Missing Value Source: NWS Daily Summary

Daily Weather History Graph

Daily Weather History Graph

Search for Another Location

Airport:

Trip Planner

Search our weather history database for the weather conditions in past years. The results will help you decide how hot, cold, wet, or windy it might be!

Date:

Astronomy

Feb. 13, 2013 Rise Set
Actual Time 7:00 AM EST 5:43 PM EST
Civil Twilight 6:33 AM EST 6:10 PM EST
Nautical Twilight 6:02 AM EST 6:41 PM EST
Astronomical Twilight 5:31 AM EST 7:12 PM EST
Moon 8:31 AM EST (2/13) 9:40 PM EST (2/13)
Length of Visible Light 11h 37m
Length of Day
10h 42m
Waxing Crescent, 13% of the Moon is Illuminated
Feb 13
Waxing Crescent
Feb 17
First Quarter
Feb 25
Full
Mar 4
Last Quarter
Mar 11
New

Hourly Weather History & Observations

Time (EST) Temp. Windchill Dew Point Humidity Pressure Visibility Wind Dir Wind Speed Gust Speed Precip Events Conditions
12:55 AM 37.0 °F 31.0 °F 27.0 °F 67% 29.96 in 10.0 mi NNE 8.1 mph - N/A   Partly Cloudy
1:55 AM 35.8 °F 30.1 °F 26.1 °F 68% 29.95 in 10.0 mi ENE 6.9 mph - N/A   Clear
2:55 AM 35.1 °F 29.3 °F 25.7 °F 69% 29.92 in 10.0 mi ENE 6.9 mph - N/A   Partly Cloudy
3:55 AM 34.3 °F 29.2 °F 25.2 °F 69% 29.89 in 10.0 mi ENE 5.8 mph - N/A   Scattered Clouds
4:55 AM 32.7 °F 28.3 °F 24.3 °F 71% 29.90 in 10.0 mi NE 4.6 mph - N/A   Clear
5:55 AM 32.2 °F 25.8 °F 25.7 °F 77% 29.89 in 10.0 mi NNE 6.9 mph - N/A   Overcast
6:55 AM 33.8 °F 27.7 °F 26.2 °F 74% 29.88 in 10.0 mi NE 6.9 mph - N/A   Overcast
7:55 AM 33.6 °F 30.6 °F 25.7 °F 73% 29.90 in 10.0 mi East 3.5 mph - N/A   Clear
8:55 AM 37.0 °F 31.6 °F 26.4 °F 65% 29.89 in 10.0 mi ENE 6.9 mph - N/A   Overcast
9:55 AM 39.6 °F 35.4 °F 26.8 °F 60% 29.87 in 10.0 mi East 5.8 mph - N/A   Overcast
10:55 AM 41.5 °F 37.1 °F 27.7 °F 58% 29.85 in 10.0 mi East 6.9 mph - N/A   Mostly Cloudy
11:55 AM 44.6 °F 39.2 °F 28.4 °F 53% 29.81 in 10.0 mi ESE 10.4 mph - N/A   Partly Cloudy
12:55 PM 45.7 °F 42.0 °F 30.2 °F 55% 29.76 in 10.0 mi ESE 6.9 mph - N/A   Mostly Cloudy
1:55 PM 44.2 °F 41.0 °F 30.9 °F 60% 29.73 in 10.0 mi East 5.8 mph - N/A   Scattered Clouds
2:06 PM 44.6 °F 41.4 °F 30.2 °F 57% 29.72 in 10.0 mi East 5.8 mph - N/A Rain Light Rain
2:34 PM 42.8 °F 40.1 °F 32.0 °F 66% 29.70 in 10.0 mi NE 4.6 mph - N/A Rain Light Rain
2:41 PM 42.8 °F 39.3 °F 33.8 °F 70% 29.70 in 10.0 mi ENE 5.8 mph - N/A Rain Light Rain
2:50 PM 42.8 °F 40.1 °F 33.8 °F 70% 29.70 in 10.0 mi NE 4.6 mph - N/A Rain Light Rain
2:55 PM 42.6 °F 38.4 °F 33.8 °F 71% 29.69 in 10.0 mi ENE 6.9 mph - 0.00 in Rain Light Rain
3:01 PM 42.8 °F 38.6 °F 33.8 °F 70% 29.69 in 10.0 mi ENE 6.9 mph - N/A   Overcast
3:07 PM 42.8 °F 38.6 °F 33.8 °F 70% 29.68 in 10.0 mi ENE 6.9 mph - N/A Rain Light Rain
3:16 PM 42.8 °F 39.3 °F 32.0 °F 66% 29.68 in 10.0 mi ENE 5.8 mph - N/A   Overcast
3:54 PM 42.8 °F - 32.0 °F 66% 29.68 in 10.0 mi Calm Calm - N/A   Light Drizzle
4:09 PM 42.8 °F 41.1 °F 33.8 °F 70% 29.67 in 10.0 mi ENE 3.5 mph - N/A   Light Drizzle
4:22 PM 41.0 °F 39.0 °F 35.6 °F 81% 29.67 in 7.0 mi ENE 3.5 mph - N/A Rain Light Rain
4:55 PM 40.3 °F 36.3 °F 36.3 °F 86% 29.67 in 5.0 mi NNE 5.8 mph - 0.04 in Rain Light Rain
5:44 PM 37.4 °F 29.3 °F 35.6 °F 93% 29.68 in 3.0 mi North 12.7 mph - N/A Rain Rain
5:47 PM 37.4 °F 29.8 °F 35.6 °F 93% 29.68 in 3.0 mi NNE 11.5 mph - N/A Rain Rain
5:54 PM 37.4 °F 30.3 °F 35.6 °F 93% 29.68 in 4.0 mi NNE 10.4 mph - N/A Rain Light Rain
5:57 PM 37.4 °F 30.8 °F 33.8 °F 87% 29.68 in 5.0 mi NNE 9.2 mph - N/A Rain Light Rain
6:38 PM 35.6 °F 29.2 °F 33.8 °F 93% 29.68 in 6.0 mi North 8.1 mph - N/A Rain Light Rain
6:53 PM 35.6 °F 28.6 °F 33.8 °F 93% 29.68 in 6.0 mi NNE 9.2 mph - N/A Rain Light Rain
6:55 PM 36.1 °F 29.9 °F 34.5 °F 94% 29.68 in 6.0 mi NNE 8.1 mph - 0.03 in Rain Light Rain
7:00 PM 35.6 °F 29.2 °F 33.8 °F 93% 29.69 in 6.0 mi North 8.1 mph - N/A Rain Light Rain
7:02 PM 35.6 °F 29.2 °F 33.8 °F 93% 29.69 in 6.0 mi NNE 8.1 mph - N/A Rain Light Rain
7:04 PM 35.6 °F 29.2 °F 33.8 °F 93% 29.69 in 6.0 mi North 8.1 mph - N/A Rain Light Rain
7:07 PM 35.6 °F 29.9 °F 33.8 °F 93% 29.69 in 6.0 mi NNE 6.9 mph - N/A Rain Light Rain
7:15 PM 35.6 °F 29.9 °F 33.8 °F 93% 29.69 in 6.0 mi NNE 6.9 mph - N/A Rain Light Rain
7:37 PM 35.6 °F 29.9 °F 33.8 °F 93% 29.69 in 6.0 mi North 6.9 mph - N/A Rain Light Rain
7:43 PM 35.6 °F 28.6 °F 35.6 °F 100% 29.70 in 6.0 mi North 9.2 mph - N/A Rain Light Rain
7:55 PM 36.3 °F 28.9 °F 34.7 °F 94% 29.70 in 6.0 mi NNW 10.4 mph - 0.02 in Rain Light Rain
7:58 PM 35.6 °F 27.1 °F 35.6 °F 100% 29.70 in 6.0 mi NNW 12.7 mph - N/A Rain Light Rain
8:10 PM 35.6 °F 27.5 °F 33.8 °F 93% 29.70 in 6.0 mi NNW 11.5 mph - N/A Rain Light Rain
8:55 PM 34.5 °F 28.6 °F 33.3 °F 95% 29.72 in 6.0 mi North 6.9 mph - 0.01 in Rain Light Rain
9:55 PM 34.3 °F 27.0 °F 33.1 °F 95% 29.74 in 5.0 mi NNW 9.2 mph - 0.02 in   Overcast
10:47 PM 33.8 °F 27.0 °F 33.8 °F 100% 29.76 in 5.0 mi NNW 8.1 mph - N/A Rain Light Rain
10:53 PM 33.8 °F 27.0 °F 33.8 °F 100% 29.76 in 6.0 mi NNW 8.1 mph - N/A   Light Drizzle
10:55 PM 34.3 °F 27.7 °F 33.1 °F 95% 29.76 in 6.0 mi NNW 8.1 mph - 0.02 in   Light Drizzle
10:56 PM 33.8 °F 26.4 °F 33.8 °F 100% 29.76 in 6.0 mi NNW 9.2 mph - N/A   Light Drizzle
10:57 PM 33.8 °F 26.4 °F 33.8 °F 100% 29.76 in 6.0 mi NNW 9.2 mph - N/A   Overcast
11:06 PM 33.8 °F 27.7 °F 33.8 °F 100% 29.76 in 6.0 mi North 6.9 mph - N/A   Overcast
11:24 PM 35.6 °F 29.9 °F 33.8 °F 93% 29.77 in 6.0 mi NW 6.9 mph - N/A   Overcast
11:29 PM 35.6 °F 29.9 °F 33.8 °F 93% 29.76 in 6.0 mi NW 6.9 mph - N/A   Overcast
11:49 PM 35.6 °F 29.2 °F 33.8 °F 93% 29.77 in 7.0 mi NNW 8.1 mph - N/A   Overcast
11:55 PM 35.2 °F 28.1 °F 33.6 °F 94% 29.78 in 6.0 mi NNW 9.2 mph - 0.00 in   Overcast